Keene, NH

1:56 PM EDT on June 23, 2017 (GMT -0400)
Dillant-Hopkins

Weather History for KEEN - April, 2014

Change the Weather History Date:

Friday, April 4, 2014

  Actual Average Record
Temperature  
Mean Temperature 38 °F -  
Max Temperature 48 °F 52 °F 77 °F (1928)
Min Temperature 28 °F 30 °F 13 °F (1943)
Degree Days  
Heating Degree Days 27    
Moisture  
Dew Point 24 °F    
Average Humidity 58    
Maximum Humidity 75    
Minimum Humidity 37    
Precipitation  
Precipitation 0.16 in - - ()
Sea Level Pressure  
Sea Level Pressure 30.04 in    
Wind  
Wind Speed 2 mph (SSE)    
Max Wind Speed 12 mph    
Max Gust Speed 18 mph    
Visibility 10 miles    
Events      
Averages and records for this station are not official NWS values.
T = Trace of Precipitation, MM = Missing Value Source: NWS Daily Summary

Daily Weather History Graph

Daily Weather History Graph

Search for Another Location

Airport or City:

Trip Planner

Search our weather history database for the weather conditions in past years. The results will help you decide how hot, cold, wet, or windy it might be!

Date:

Astronomy

Apr. 04, 2014 Rise Set
Actual Time 6:26 AM EDT 7:18 PM EDT
Civil Twilight 5:57 AM EDT 7:47 PM EDT
Nautical Twilight 5:23 AM EDT 8:21 PM EDT
Astronomical Twilight 4:47 AM EDT 8:57 PM EDT
Moon 9:35 AM EDT (4/4) No Moon Set
Length of Visible Light 13h 50m
Length of Day
12h 52m
Waxing Crescent, 25% of the Moon is Illuminated
Apr 4
Waxing Crescent
Apr 7
First Quarter
Apr 15
Full
Apr 22
Last Quarter
Apr 29
New

Hourly Weather History & Observations

Time (EDT) Temp. Windchill Dew Point Humidity Pressure Visibility Wind Dir Wind Speed Gust Speed Precip Events Conditions
12:15 AM 33.8 °F - 21.2 °F 60% 30.14 in 10.0 mi Calm Calm - N/A   Clear
12:35 AM 32.0 °F - 21.2 °F 64% 30.14 in 10.0 mi Calm Calm - N/A   Clear
12:55 AM 30.2 °F - 21.2 °F 69% 30.14 in 10.0 mi Calm Calm - N/A   Clear
1:15 AM 30.2 °F 25.4 °F 21.2 °F 69% 30.14 in 10.0 mi SSW 4.6 mph - N/A   Clear
1:35 AM 30.2 °F - 21.2 °F 69% 30.13 in 10.0 mi Calm Calm - N/A   Clear
1:55 AM 30.2 °F - 21.2 °F 69% 30.13 in 10.0 mi Calm Calm - N/A   Clear
2:15 AM 28.4 °F - 19.4 °F 69% 30.13 in 10.0 mi Calm Calm - N/A   Clear
2:35 AM 30.2 °F - 21.2 °F 69% 30.14 in 10.0 mi Calm Calm - N/A   Clear
2:55 AM 30.2 °F - 21.2 °F 69% 30.14 in 10.0 mi Calm Calm - N/A   Clear
3:15 AM 30.2 °F - 21.2 °F 69% 30.14 in 10.0 mi Calm Calm - N/A   Clear
3:35 AM 30.2 °F - 21.2 °F 69% 30.13 in 10.0 mi Calm Calm - N/A   Clear
3:55 AM 30.2 °F - 21.2 °F 69% 30.12 in 10.0 mi Calm Calm - N/A   Clear
4:15 AM 30.2 °F - 21.2 °F 69% 30.12 in 10.0 mi Calm Calm - N/A   Clear
4:35 AM 32.0 °F - 21.2 °F 64% 30.12 in 10.0 mi Calm Calm - N/A   Clear
4:55 AM 30.2 °F - 21.2 °F 69% 30.12 in 10.0 mi Calm Calm - N/A   Clear
5:15 AM 30.2 °F - 23.0 °F 75% 30.12 in 10.0 mi Calm Calm - N/A   Clear
5:35 AM 32.0 °F - 23.0 °F 69% 30.12 in 10.0 mi Calm Calm - N/A   Clear
5:55 AM 30.2 °F - 23.0 °F 75% 30.13 in 10.0 mi Calm Calm - N/A   Partly Cloudy
6:15 AM 32.0 °F - 23.0 °F 69% 30.12 in 10.0 mi Calm Calm - N/A   Clear
6:35 AM 30.2 °F - 21.2 °F 69% 30.11 in 10.0 mi Calm Calm - N/A   Clear
6:55 AM 30.2 °F - 23.0 °F 75% 30.13 in 10.0 mi Calm Calm - N/A   Clear
7:15 AM 32.0 °F - 23.0 °F 69% 30.13 in 10.0 mi Calm Calm - N/A   Clear
7:35 AM 33.8 °F - 24.8 °F 70% 30.13 in 10.0 mi Calm Calm - N/A   Clear
7:55 AM 33.8 °F 29.6 °F 24.8 °F 70% 30.14 in 10.0 mi South 4.6 mph - N/A   Clear
8:15 AM 35.6 °F - 23.0 °F 60% 30.14 in 10.0 mi Calm Calm - N/A   Clear
8:35 AM 37.4 °F - 23.0 °F 56% 30.14 in 10.0 mi Calm Calm - N/A   Clear
8:55 AM 37.4 °F 34.9 °F 21.2 °F 52% 30.14 in 10.0 mi SW 3.5 mph - N/A   Clear
9:15 AM 39.2 °F 37.0 °F 21.2 °F 49% 30.13 in 10.0 mi East 3.5 mph - N/A   Clear
9:35 AM 41.0 °F - 21.2 °F 45% 30.13 in 10.0 mi Calm Calm - N/A   Clear
9:55 AM 42.8 °F 41.1 °F 21.2 °F 42% 30.12 in 10.0 mi South 3.5 mph - N/A   Clear
10:15 AM 42.8 °F 40.1 °F 21.2 °F 42% 30.11 in 10.0 mi South 4.6 mph - N/A   Clear
10:35 AM 44.6 °F 42.2 °F 21.2 °F 39% 30.10 in 10.0 mi SSW 4.6 mph - N/A   Clear
10:55 AM 44.6 °F 40.7 °F 21.2 °F 39% 30.09 in 10.0 mi South 6.9 mph - N/A   Clear
11:15 AM 46.4 °F 42.9 °F 23.0 °F 40% 30.09 in 10.0 mi South 6.9 mph - N/A   Clear
11:35 AM 46.4 °F 44.3 °F 24.8 °F 43% 30.08 in 10.0 mi South 4.6 mph - N/A   Clear
11:55 AM 48.2 °F - 23.0 °F 37% 30.07 in 10.0 mi SE 5.8 mph - N/A   Scattered Clouds
12:15 PM 48.2 °F - 24.8 °F 40% 30.06 in 10.0 mi South 9.2 mph - N/A   Partly Cloudy
12:35 PM 48.2 °F - 24.8 °F 40% 30.06 in 10.0 mi South 4.6 mph 18.4 mph N/A   Mostly Cloudy
12:55 PM 48.2 °F - 24.8 °F 40% 30.05 in 10.0 mi South 10.4 mph 18.4 mph N/A   Overcast
1:15 PM 48.2 °F - 24.8 °F 40% 30.05 in 10.0 mi ENE 5.8 mph - N/A   Overcast
1:35 PM 48.2 °F - 24.8 °F 40% 30.05 in 10.0 mi SSE 4.6 mph - N/A   Overcast
1:55 PM 48.2 °F - 26.6 °F 43% 30.04 in 10.0 mi ESE 6.9 mph - N/A   Overcast
2:15 PM 48.2 °F - 24.8 °F 40% 30.02 in 10.0 mi South 9.2 mph - N/A   Overcast
2:55 PM 48.2 °F - 24.8 °F 40% 30.01 in 10.0 mi South 8.1 mph - N/A   Overcast
3:15 PM 48.2 °F - 24.8 °F 40% 29.99 in 10.0 mi South 9.2 mph - N/A   Overcast
3:35 PM 48.2 °F - 24.8 °F 40% 29.99 in 10.0 mi SSE 10.4 mph - N/A   Overcast
3:55 PM 46.4 °F 42.9 °F 24.8 °F 43% 29.98 in 10.0 mi SSE 6.9 mph - N/A   Overcast
4:15 PM 46.4 °F 41.1 °F 24.8 °F 43% 29.97 in 10.0 mi South 11.5 mph 17.3 mph N/A   Overcast
4:35 PM 46.4 °F 41.9 °F 24.8 °F 43% 29.98 in 10.0 mi SSE 9.2 mph 16.1 mph N/A   Overcast
4:55 PM 44.6 °F 40.7 °F 24.8 °F 46% 29.98 in 10.0 mi SSE 6.9 mph 16.1 mph N/A   Overcast
5:15 PM 44.6 °F 43.1 °F 24.8 °F 46% 29.97 in 10.0 mi SSE 3.5 mph - N/A   Overcast
5:35 PM 44.6 °F 40.2 °F 24.8 °F 46% 29.91 in 10.0 mi ESE 8.1 mph - N/A   Overcast
5:55 PM 42.8 °F 40.1 °F 24.8 °F 49% 29.95 in 10.0 mi SSE 4.6 mph - N/A   Overcast
6:15 PM 42.8 °F 41.1 °F 24.8 °F 49% 29.93 in 10.0 mi East 3.5 mph - N/A   Overcast
6:35 PM 42.8 °F 38.0 °F 24.8 °F 49% 29.93 in 10.0 mi SSE 8.1 mph - N/A   Overcast
6:55 PM 41.0 °F 38.0 °F 24.8 °F 53% 29.91 in 10.0 mi SE 4.6 mph - N/A   Overcast
7:15 PM 41.0 °F - 24.8 °F 53% 29.90 in 10.0 mi Calm Calm - N/A   Overcast
7:35 PM 39.2 °F 35.9 °F 23.0 °F 52% 29.90 in 10.0 mi SE 4.6 mph - N/A   Overcast
7:55 PM 39.2 °F - 24.8 °F 56% 29.90 in 10.0 mi Calm Calm - 0.01 in   Overcast
8:15 PM 37.4 °F - 26.6 °F 65% 29.92 in 8.0 mi Calm Calm - 0.03 in   Overcast
8:35 PM 35.6 °F - 28.4 °F 75% 29.93 in 5.0 mi Calm Calm - 0.07 in   Overcast
8:55 PM 35.6 °F - 28.4 °F 75% 29.94 in 6.0 mi Calm Calm - 0.10 in   Overcast
9:15 PM 35.6 °F 32.8 °F 28.4 °F 75% 29.92 in 10.0 mi ESE 3.5 mph - N/A   Overcast
9:35 PM 35.6 °F - 28.4 °F 75% 29.93 in 7.0 mi Calm Calm - 0.01 in   Overcast
9:55 PM 35.6 °F 32.8 °F 28.4 °F 75% 29.92 in 5.0 mi SE 3.5 mph - 0.03 in   Overcast
10:15 PM 35.6 °F - 28.4 °F 75% 29.92 in 6.0 mi Calm Calm - 0.01 in   Overcast
10:35 PM 35.6 °F - 28.4 °F 75% 29.93 in 8.0 mi Calm Calm - 0.02 in   Overcast
10:55 PM 35.6 °F - 28.4 °F 75% 29.93 in 10.0 mi Calm Calm - 0.02 in   Overcast
11:15 PM 35.6 °F - 28.4 °F 75% 29.91 in 9.0 mi Calm Calm - N/A   Overcast
11:35 PM 35.6 °F - 28.4 °F 75% 29.90 in 8.0 mi Calm Calm - N/A   Overcast
11:55 PM 35.6 °F - 28.4 °F 75% 29.89 in 5.0 mi Calm Calm - N/A   Overcast